This demonstration page uses our WeatherBlox Daily Observations layout. Learn more.

Left ArrowRight Arrow

39.51506, -84.39828

Hourly Observations for October 13, 2015

Temp ( °F °C ) Dew Point ( °F °C ) Humidity (%) Winds ( mph kmh ) Pressure ( in mb ) Visibility ( mi km ) Precip ( " mm )
12:15 am 00:15 Mostly Cloudy with Mist and Fog 64 17.9 61 15.9 88 88 SSW 7 11 29.62 1003 5 8 N/A
12:35 am 00:35 Cloudy with Mist and Fog 64 17.8 60 15.8 88 88 WSW 7 11 29.62 1003 5 8 N/A
12:55 am 00:55 Mostly Cloudy 63 17.2 59 15.2 88 88 WSW 7 11 29.62 1003 7 11 N/A
1:15 am 01:15 Partly Cloudy 62 16.7 58 14.7 88 88 WSW 7 11 29.62 1003 7 11 N/A
1:35 am 01:35 Clear 62 16.6 58 14.6 88 88 WSW 7 11 29.62 1003 7 11 N/A
1:55 am 01:55 Clear 62 16.6 58 14.5 88 88 WSW 8 13 29.62 1003 10 16 N/A
2:15 am 02:15 Clear 61 16 57 13.7 86 86 WSW 8 13 29.62 1003 10 16 N/A
2:35 am 02:35 Clear 61 16 57 13.7 86 86 WSW 7 11 29.62 1003 10 16 N/A
2:55 am 02:55 Clear 60 15.3 56 13.2 87 87 WSW 6 9 29.62 1003 10 16 N/A
3:15 am 03:15 Clear 60 15.3 56 13.3 88 88 N N/A 29.62 1003 10 16 N/A
3:35 am 03:35 Clear 57 13.8 54 12 89 89 N N/A 29.62 1003 7 11 N/A
3:55 am 03:55 Clear with Mist and Fog 57 13.8 54 12 89 89 N N/A 29.62 1003 5 8 N/A
4:15 am 04:15 Clear 57 13.8 54 12 89 89 N N/A 29.59 1002 7 11 N/A
4:35 am 04:35 Clear 57 13.8 54 12 89 89 N N/A 29.59 1002 7 11 N/A
4:55 am 04:55 Clear 55 12.6 51 10.8 89 89 N N/A 29.59 1002 7 11 N/A
5:15 am 05:15 Clear 57 13.8 54 12 89 89 N N/A 29.59 1002 10 16 N/A
5:35 am 05:35 Clear 56 13.6 53 11.7 88 88 N N/A 29.62 1003 10 16 N/A
5:55 am 05:55 Clear 55 12.5 51 10.5 88 88 WSW 5 7 29.62 1003 10 16 N/A
6:15 am 06:15 Clear 55 12.5 51 10.5 88 88 WSW 5 7 29.62 1003 10 16 N/A
6:35 am 06:35 Clear 55 12.5 50 10.2 86 86 WSW 6 9 29.62 1003 10 16 N/A
6:55 am 06:55 Clear 55 12.5 50 10.2 86 86 WSW 6 9 29.62 1003 10 16 N/A
7:15 am 07:15 Clear 55 12.5 50 10.2 86 86 WSW 6 9 29.65 1004 10 16 N/A
7:35 am 07:35 Clear 55 12.5 50 10.1 85 85 WSW 5 7 29.65 1004 10 16 N/A
7:55 am 07:55 Sunny 55 12.5 49 9.7 83 83 N N/A 29.65 1004 10 16 N/A
8:15 am 08:15 Sunny 55 12.5 50 9.9 84 84 N N/A 29.65 1004 10 16 N/A
8:35 am 08:35 Sunny 55 12.5 48 8.8 78 78 W 9 15 29.65 1004 10 16 N/A
8:55 am 08:55 Sunny 57 13.8 49 9.5 75 75 W 8 13 29.68 1005 10 16 N/A
9:15 am 09:15 Sunny 57 13.8 48 8.9 73 73 W 10 17 29.68 1005 10 16 N/A
9:35 am 09:35 Sunny 57 13.9 47 8.5 70 70 WNW 13 20 29.68 1005 10 16 N/A
9:55 am 09:55 Sunny 58 14.7 47 8.5 67 67 WNW 10 17 29.68 1005 10 16 N/A
10:15 am 10:15 Sunny 60 15.3 46 7.8 61 61 W 13 20 29.71 1006 10 16 N/A
10:35 am 10:35 Sunny 60 15.3 45 7.3 59 59 W 15 24 29.71 1006 10 16 N/A
10:55 am 10:55 Sunny 60 15.3 43 6.1 54 54 WNW 15 24 29.71 1006 10 16 N/A
11:15 am 11:15 Partly Cloudy 60 15.3 42 5.8 53 53 WNW 15 24 29.71 1006 10 16 N/A
11:35 am 11:35 Partly Cloudy 60 15.5 42 5.3 51 51 NW 15 24 29.71 1006 10 16 N/A
11:55 am 11:55 Partly Cloudy 61 15.9 42 5.5 50 50 WNW 10 17 29.71 1006 10 16 N/A
12:15 pm 12:15 Partly Cloudy 60 15.4 42 5.3 51 51 W 10 17 29.71 1006 10 16 N/A
12:35 pm 12:35 Mostly Cloudy 61 16.2 42 5.4 49 49 W 12 19 29.74 1007 10 16 N/A
12:55 pm 12:55 Mostly Cloudy 62 16.6 41 5.1 47 47 W 10 17 29.74 1007 10 16 N/A
1:15 pm 13:15 Mostly Cloudy 64 17.5 42 5.3 45 45 WNW 7 11 29.74 1007 10 16 N/A
1:35 pm 13:35 Partly Cloudy 63 17.3 42 5.3 45 45 WNW 12 19 29.74 1007 10 16 N/A
1:55 pm 13:55 Sunny 62 16.4 41 4.9 47 47 W 13 20 29.74 1007 10 16 N/A
2:15 pm 14:15 Partly Cloudy 63 17.1 41 5.1 45 45 WNW 8 13 29.74 1007 10 16 N/A
2:35 pm 14:35 Mostly Cloudy 67 19.5 42 5.6 40 40 W 12 19 29.74 1007 10 16 N/A
2:55 pm 14:55 Mostly Cloudy 66 18.9 41 5.1 40 40 W 10 17 29.74 1007 10 16 N/A
3:15 pm 15:15 Mostly Cloudy 64 18 41 4.8 42 42 WNW 10 17 29.74 1007 10 16 N/A
3:35 pm 15:35 Partly Cloudy 64 18 40 4.7 42 42 W 9 15 29.74 1007 10 16 N/A
3:55 pm 15:55 Mostly Cloudy 68 19.9 42 5.8 40 40 W 10 17 29.74 1007 10 16 N/A
4:15 pm 16:15 Cloudy 64 18 40 4.7 42 42 W 13 20 29.77 1008 10 16 N/A
4:35 pm 16:35 Cloudy 64 18 41 5.2 43 43 W 10 17 29.77 1008 10 16 N/A
4:55 pm 16:55 Cloudy 64 18 41 5.2 43 43 W 14 22 29.77 1008 10 16 N/A
5:15 pm 17:15 Cloudy 64 17.5 41 4.8 43 43 W 13 20 29.77 1008 10 16 N/A
5:35 pm 17:35 Cloudy 63 17.2 40 4.7 44 44 W 9 15 29.77 1008 10 16 N/A
5:55 pm 17:55 Cloudy 63 17 41 5.1 46 46 W 6 9 29.77 1008 10 16 N/A
6:15 pm 18:15 Cloudy 63 17 41 5 45 45 W 8 13 29.77 1008 10 16 N/A
6:35 pm 18:35 Cloudy 62 16.6 41 5.2 47 47 W 7 11 29.80 1009 10 16 N/A
6:55 pm 18:55 Cloudy 61 16.3 43 6 51 51 WSW 7 11 29.80 1009 10 16 N/A
7:15 pm 19:15 Cloudy 61 16 44 6.4 53 53 WSW 6 9 29.80 1009 10 16 N/A
7:35 pm 19:35 Cloudy 61 15.9 45 7.2 57 57 WSW 7 11 29.80 1009 10 16 N/A
7:55 pm 19:55 Cloudy 60 15.4 45 7 58 58 SW 6 9 29.83 1010 10 16 N/A
8:15 pm 20:15 Cloudy 60 15.3 46 7.5 60 60 WSW 5 7 29.83 1010 10 16 N/A
8:35 pm 20:35 Cloudy 60 15.3 46 8 62 62 WSW 5 7 29.83 1010 10 16 N/A
8:55 pm 20:55 Cloudy 60 15.3 48 8.8 65 65 W 3 6 29.83 1010 10 16 N/A
9:15 pm 21:15 Cloudy 60 15.3 47 8.5 64 64 SW 3 6 29.83 1010 10 16 N/A
9:35 pm 21:35 Cloudy 57 13.8 46 8 68 68 WSW 3 6 29.83 1010 10 16 N/A
9:55 pm 21:55 Partly Cloudy 57 13.8 47 8.2 69 69 WSW 5 7 29.83 1010 10 16 N/A
10:15 pm 22:15 Clear 57 13.8 47 8.5 71 71 WNW 3 6 29.88 1012 10 16 N/A
10:35 pm 22:35 Clear 57 13.8 46 7.7 67 67 NNW 6 9 29.88 1012 10 16 N/A
10:55 pm 22:55 Clear 55 12.9 44 6.6 66 66 N 5 7 29.88 1012 10 16 N/A
11:15 pm 23:15 Clear 55 12.5 43 6.1 65 65 N 6 9 29.88 1012 10 16 N/A
11:35 pm 23:35 Clear 55 12.5 44 6.5 67 67 N N/A 29.91 1013 10 16 N/A
11:55 pm 23:55 Clear 55 12.5 45 7.2 70 70 N N/A 29.88 1012 10 16 N/A

Powered by AerisWeather